DW2921 Weather Reports


time (UTC)temp
C
wind
direction
speed
KPH
gust
KPH
rain 1hr
cm
rain 24hr
cm
rain mn
cm
humidity
%
barometer
mb
20260503200100 19 225 8.0 12.9 0.00 0.00 0.00 41 1013.0
20260503195058 20 188 3.2 19.3 0.00 0.00 0.00 41 1013.0
20260503194059 19 184 1.6 20.9 0.00 0.00 0.00 41 1013.0
20260503192059 20 134 3.2 19.3 0.00 0.00 0.00 41 1013.0
20260503191059 18 183 8.0 22.5 0.00 0.00 0.00 41 1013.0
20260503185058 19 194 4.8 19.3 0.00 0.00 0.00 41 1013.0
20260503183059 18 216 4.8 16.1 0.00 0.00 0.00 41 1013.0
20260503182058 18 199 4.8 19.3 0.00 0.00 0.00 41 1013.0
20260503181059 18 215 9.7 19.3 0.00 0.00 0.00 41 1013.0
20260503180100 18 158 3.2 11.3 0.00 0.00 0.00 41 1013.0
20260503175058 17 303 4.8 11.3 0.00 0.00 0.00 41 1013.0
20260503173059 17 297 4.8 16.1 0.00 0.00 0.00 41 1013.0
20260503172058 17 176 1.6 11.3 0.00 0.00 0.00 41 1013.0
20260503171058 16 204 4.8 16.1 0.00 0.00 0.00 41 1013.0
20260503131059 10 60 1.6 4.8 0.00 0.00 0.00 41 1013.0
20260503072100 9 334 0.0 0.0 0.00 0.00 0.00 41 1013.0
20260503071059 9 334 0.0 0.0 0.00 0.00 0.00 41 1013.0
20260503055100 11 334 0.0 0.0 0.00 0.00 0.00 41 1013.0
20260503054059 11 334 0.0 0.0 0.00 0.00 0.00 41 1013.0
20260503052100 11 334 0.0 0.0 0.00 0.00 0.00 41 1013.0
20260503051059 12 334 0.0 0.0 0.00 0.00 0.00 41 1013.0
20260503050101 12 334 0.0 0.0 0.00 0.00 0.00 41 1013.0
20260503045059 12 335 0.0 0.0 0.00 0.00 0.00 41 1013.0
20260503044059 12 334 0.0 0.0 0.00 0.00 0.00 41 1013.0
20260503043059 12 334 0.0 0.0 0.00 0.00 0.00 41 1013.0
20260503042059 12 334 0.0 3.2 0.00 0.00 0.00 41 1013.0
20260503035059 12 335 1.6 9.7 0.00 0.00 0.00 41 1013.0
20260503033059 12 333 1.6 4.8 0.00 0.00 0.00 41 1013.0
20260503032100 12 334 1.6 4.8 0.00 0.00 0.00 41 1013.0
20260503031059 12 333 0.0 4.8 0.00 0.00 0.00 41 1013.0
20260503024059 13 336 0.0 1.6 0.00 0.00 0.00 41 1013.0
20260503023100 13 336 0.0 3.2 0.00 0.00 0.00 41 1013.0
20260503020101 13 336 0.0 3.2 0.00 0.00 0.00 41 1013.0
20260503015100 13 336 0.0 3.2 0.00 0.00 0.00 41 1013.0
20260503014100 13 336 0.0 3.2 0.00 0.00 0.00 41 1013.0
20260503013100 13 336 1.6 4.8 0.00 0.00 0.00 41 1013.0
20260503012100 13 336 3.2 4.8 0.00 0.00 0.00 41 1013.0
20260503011059 13 336 1.6 4.8 0.00 0.00 0.00 41 1013.0
20260503004100 15 343 1.6 4.8 0.00 0.00 0.00 41 1013.0
20260503003059 15 344 1.6 8.0 0.00 0.00 0.00 41 1013.0
20260503002059 15 339 3.2 9.7 0.00 0.00 0.00 41 1013.0
20260503001100 16 348 1.6 8.0 0.00 0.00 0.00 41 1013.0
20260502235059 16 340 1.6 11.3 0.00 0.00 0.00 41 1013.0
20260502234100 16 357 3.2 8.0 0.00 0.00 0.00 41 1013.0
20260502233059 16 347 3.2 19.3 0.00 0.00 0.00 41 1013.0
20260502232059 17 313 6.4 14.5 0.00 0.00 0.00 41 1013.0
20260502231100 17 27 4.8 25.7 0.00 0.00 0.00 41 1013.0
20260502225100 18 336 3.2 11.3 0.00 0.00 0.00 41 1013.0
20260502224100 18 12 3.2 11.3 0.00 0.00 0.00 41 1013.0
20260502223100 18 2 3.2 14.5 0.00 0.00 0.00 41 1013.0
20260502222059 18 355 6.4 14.5 0.00 0.00 0.00 41 1013.0
20260502221059 18 339 8.0 19.3 0.00 0.00 0.00 41 1013.0
20260502215100 18 9 6.4 19.3 0.00 0.00 0.00 41 1013.0
20260502214059 18 245 4.8 14.5 0.00 0.00 0.00 41 1013.0
20260502211059 18 354 8.0 19.3 0.00 0.00 0.00 41 1013.0
20260502210101 19 354 4.8 14.5 0.00 0.00 0.00 41 1013.0
20260502205100 19 294 3.2 9.7 0.00 0.00 0.00 41 1013.0
20260502204059 20 336 6.4 19.3 0.00 0.00 0.00 41 1013.0
20260502203059 20 21 3.2 19.3 0.00 0.00 0.00 41 1013.0
20260502202100 19 343 6.4 16.1 0.00 0.00 0.00 41 1013.0
20260502201100 19 268 4.8 16.1 0.00 0.00 0.00 41 1013.0